This is the latest recevied weather packets stored in our database for station/object KD8DNS. If no packets are shown the sender has not sent any weather packets the latest 10 day(s).
| Time | Temp. | Humidity | Pressure | Rain* | Wind** | Luminosity | Snow |
|---|---|---|---|---|---|---|---|
| 1788304052 | 32.78° C | 62% | 1020.2 hPa | 0 mm | - | 29 W/m² | - |
| 1788303751 | 32.78° C | 61% | 1020.1 hPa | 0 mm | - | 33 W/m² | - |
| 1788303447 | 32.78° C | 60% | 1020.1 hPa | 0 mm | - | 36 W/m² | - |
| 1788303141 | 33.33° C | 59% | 1020.3 hPa | 0 mm | - | 45 W/m² | - |
| 1788302837 | 33.33° C | 58% | 1020.2 hPa | 0 mm | - | 41 W/m² | - |
| 1788302533 | 33.89° C | 58% | 1020.2 hPa | 0 mm | - | 42 W/m² | - |
| 1788302229 | 33.89° C | 57% | 1020.1 hPa | 0 mm | - | 49 W/m² | - |
| 1788301923 | 33.89° C | 57% | 1020.3 hPa | 0 mm | - | 46 W/m² | - |
| 1788301620 | 33.33° C | 57% | 1020.2 hPa | 0 mm | - | 47 W/m² | - |
| 1788301315 | 33.33° C | 58% | 1020.3 hPa | 0 mm | - | 60 W/m² | - |
| 1788301011 | 33.33° C | 57% | 1020.3 hPa | 0 mm | - | 51 W/m² | - |
| 1788300707 | 33.33° C | 59% | 1020.2 hPa | 0 mm | - | 54 W/m² | - |
| 1788300406 | 33.89° C | 57% | 1020 hPa | 0 mm | - | 56 W/m² | - |
| 1788300105 | 33.89° C | 57% | 1020.2 hPa | 0 mm | - | 59 W/m² | - |
| 1788299804 | 33.33° C | 59% | 1020 hPa | 0 mm | - | 60 W/m² | - |
| 1788299499 | 33.89° C | 57% | 1020.1 hPa | 0 mm | - | 62 W/m² | - |
| 1788299197 | 33.89° C | 57% | 1020.2 hPa | 0 mm | - | 62 W/m² | - |
| 1788298897 | 33.89° C | 57% | 1020.2 hPa | 0 mm | - | 63 W/m² | - |
| 1788298591 | 33.89° C | 56% | 1020 hPa | 0 mm | - | 65 W/m² | - |
| 1788298286 | 33.89° C | 59% | 1020 hPa | 0 mm | - | 67 W/m² | - |
| 1788297985 | 33.89° C | 56% | 1020.1 hPa | 0 mm | - | 70 W/m² | - |
| 1788297681 | 33.89° C | 57% | 1020.2 hPa | 0 mm | - | 153 W/m² | - |
| 1788297377 | 33.89° C | 56% | 1020 hPa | 0 mm | - | 74 W/m² | - |
| 1788297073 | 33.89° C | 58% | 1020.1 hPa | 0 mm | - | 124 W/m² | - |
| 1788296769 | 33.89° C | 57% | 1020.1 hPa | 0 mm | - | 76 W/m² | - |
* Rain latest hour (hover to see other rain measurements)
** Current wind speed in m/s (hover to see current wind gust speed)